一网星座-0701 (ONEWEB-0701)

导读

ONEWEB-0701是英国太空互联网公司OneWeb的低轨通信卫星,于北京时间2024年10月20日由SpaceX猎鹰9号火箭在美国范登堡太空军基地发射升空,是SpaceX为OneWeb发射的最后一批20颗卫星之一。该卫星运行在近地点约1123千米、远地点约1127千米的近极地轨道,倾角87.748度,助力OneWeb完成全球覆盖组网,提升星座弹性与冗余性,更好服务全球企业及政府客户。

Basic Information
目录编号:
61607
目录名称:
ONEWEB-0701
国际标识:
2024-188P
轨道中心:
EARTH
卫星名称:
一网星座-0701
卫星全名:
一网星座-0701 (ONEWEB-0701)
卫星状态:
在轨 (已飞行692 天)
发射日期:
2024-10-20 UTC
国别 :
英国 (GB)
星等 :
--
This satellite is enrolled in the Space Conjunction Data Service (SCDS) and the current flight risk assessment level is: No High Risk
Orbit Information
数据来源 国际轨道数据 AOE轨道数据
星历时间 2026-09-12T01:55:37+0800
12小时前
查看轨道信息
2026-09-10T06:00:00+0800
2天前
查看轨道信息
半长轴 7599.855km 7599.835km
偏心率 0.0001334 0.0001359
轨道倾角 87.890° 87.890°
近地点辐角 74.490° 79.542°
升交点赤经 19.032° 19.395°
平近点角 285.637° 291.397°
近地点 1220.704km 1220.665km
远地点 1222.732km 1222.731km
周期 109.892分钟 109.892分钟
每日圈数 13.103726 13.103779
Detailed Information
卫星平台:
0701
平衡模式:
三轴稳定
覆盖范围:
全球
运营商:
一网卫星公司
运营商所在国:
英国
制造商(研发单位):
空客防务与航天公司
制造商所在国:
法国大都会
使用方式:
暂无
Satellite Introduction
OneWeb 计划是一项全球卫星互联网项目,旨在通过发射低轨道卫星,为全球偏远和无法接入互联网的地区提供高速网络连接。OneWeb 的目标是打造一个由数百颗卫星组成的网络,帮助缩小全球数字鸿沟,推动教育、医疗和经济发展。
2D Orbit Map
3D Orbit Map
Orbit Altitude Analysis Chart
Orbit Inclination Analysis Chart
Orbit Comprehensive Analysis Chart
View Comprehensive Chart
Miss Distance Evolution Trend with All Objects
Collision Probability Evolution Trend with All Objects